Flag for Germany Weather past 2 weeks in Zittau, Saxony, Germany

Now
34 °F

Light rain. Overcast.


Feels Like: 28 °F
Forecast: 31 / 39 °F
Wind: 7 mph from West

Location: Liberec

Current Time: Mar 3, 2015 at 4:41:51 AM

Latest Report: Mar 3, 2015 at 4:00 AM


Visibility: 13 mi

Pressure: 29.96 "Hg

Humidity: 76%

Dew point: 27 °F

Location of ZittauLocation

Historic Weather in Zittau — Graph

°F

Zittau temperature yesterday

Maximum temperature yesterday: 46 °F (at 2:00 PM)
Minimum temperature yesterday: 34 °F (at 11:00 PM)
Average temperature yesterday: 41 °F

Past Weeks' High & Low Weather Summary

 TemperatureHumidityPressure
High47 °F (Feb 16, 2:00 PM)100% (Feb 26, 2:00 AM)30.76 "Hg (Feb 26, 2:00 AM)
Low26 °F (Feb 16, 7:00 AM)41% (Feb 16, 1:00 PM)29.50 "Hg (Feb 23, 2:00 PM)
Average35 °F82%30.04 "Hg
* Reported Feb 16 3:00 AM — Mar 3 3:00 AM, Zittau, Weather by CustomWeather, © 2015

Note: Actual official high and low records may vary slightly from our data, if they occured in-between our weather recording intervals... More about our weather records

Advertising

Zittau weather history for previous 24 hours

 ConditionsComfort  
Time TempWeatherWind HumidityBarometerVisibility
3:00 AM
Tue, Mar 3
34 °FRain showers. Overcast.9 mph79%29.93 "Hg12 mi
2:00 AM33 °FRain showers. Overcast.7 mph85%29.91 "Hg12 mi
1:00 AM33 °FLight snow. Overcast.9 mph92%29.88 "Hg2 mi
12:00 AM37 °FRain showers. Overcast.7 mph73%29.81 "Hg12 mi
11:00 PM
Mon, Mar 2
34 °FChilly.2 mph73%29.81 "Hg12 mi
10:00 PM36 °FChilly.3 mph67%29.80 "Hg12 mi
9:00 PM37 °FPassing clouds.6 mph63%29.78 "Hg19 mi
8:00 PM35 °FClear.3 mph61%29.79 "Hg19 mi
7:00 PM38 °FPassing clouds.5 mph55%29.76 "Hg25 mi
6:00 PM40 °FChilly.6 mph52%29.73 "Hg12 mi
5:00 PM41 °FQuite cool.8 mph47%29.70 "Hg12 mi
4:00 PM44 °FScattered clouds.8 mph42%29.67 "Hg31 mi
3:00 PM46 °FPartly sunny.8 mph45%29.62 "Hg28 mi
2:00 PM46 °FPartly sunny.7 mph51%29.59 "Hg25 mi
1:00 PM44 °FPartly sunny.7 mph58%29.59 "Hg25 mi
12:00 PM45 °FPartly sunny.7 mph57%29.58 "Hg25 mi
11:00 AM44 °FScattered clouds.7 mph70%29.56 "Hg25 mi
10:00 AM44 °FPartly sunny.6 mph74%29.56 "Hg25 mi
9:00 AMN/APassing clouds.9 mphN/AN/A2 mi
8:00 AM42 °FLight rain. Partly sunny.7 mph89%29.50 "Hg7 mi
7:00 AM42 °FRain. Overcast.7 mph93%29.50 "Hg4 mi
6:00 AM40 °FRain showers. Overcast.3 mph96%29.54 "Hg6 mi
5:00 AM39 °FLight rain. Overcast.5 mph94%29.58 "Hg3 mi
4:00 AM40 °FFog.5 mph94%29.59 "Hg5 mi
Weather by CustomWeather, © 2015

See weather overviewHow to use our weather pages